STARLINK-2451

Last updated on Sat May 08 2021 00:02:04 GMT+0000 (Coordinated Universal Time)

1 48114U 21027Y 21127.58334491 .00055132 00000-0 39491-3 0 9995 2 48114 53.0472 191.7443 0002650 30.6873 273.0478 15.73178741 1770

Satellite not in orbit